Location: Alpelen
(46.9442°N, 8.4412°E)
Time: 07:08:17
(UTC+00:00)

Daily predictions for brighter satellites

Satellite Brightness Start Highest point End
(mag) Time Altitude Azimuth Time Altitude Azimuth Time Altitude Azimuth
Cosmos 1515 Rocket 4.0 19:15:38 10° NNW 19:20:06 68° W 19:24:31 10° S
Cosmos 389 Rocket 3.2 19:17:12 10° N 19:20:23 34° ENE 19:23:35 10° SE
SPOT 3 Rocket 3.7 19:16:30 10° SSE 19:21:37 60° ENE 19:26:45 10° N
Cosmos 1812 3.5 19:18:46 10° N 19:22:18 34° ENE 19:25:49 10° SE
Cosmos 1727 Rocket 4.1 19:16:07 10° N 19:22:31 72° E 19:28:50 10° SSE
Cosmos 2251 Rocket 3.5 19:18:00 10° SSW 19:23:15 80° ESE 19:28:34 10° NNE
Cosmos 1656 3.7 19:21:45 10° NNW 19:27:15 71° ENE 19:32:45 10° SE
Cosmos 1633 3.6 19:27:31 10° SSW 19:30:57 49° WNW 19:34:25 10° N
Cosmos 1707 Rocket 4.5 19:27:50 10° N 19:31:44 31° ENE 19:35:36 10° SE
Cosmos 220 Rocket 4.3 19:27:43 10° NNW 19:31:50 49° ENE 19:35:56 10° SE
Resurs 01 Rocket 1.9 19:28:27 10° SE 19:32:43 50° ENE 19:37:02 10° N
Cosmos 972 Rocket 3.9 19:28:42 10° NNW 19:33:45 87° WSW 19:38:38 10° SSE
Cosmos 1441 Rocket 3.6 19:34:33 10° SSE 19:38:10 42° E 19:41:45 10° NNE
IRIDIUM 114 4.4 19:35:37 10° S 19:40:46 64° E 19:45:57 10° N
Cosmos 614 Rocket 4.1 19:36:48 10° S 19:41:46 51° ESE 19:46:48 10° NNE
IGS 5A 4.5 19:41:07 11° SE 19:44:27 30° ENE 19:48:04 10° N
Cosmos 1900 4.3 19:40:07 10° SSW 19:45:03 88° SE 19:50:08 10° NE
USA 267 3.3 19:41:49 10° ENE 19:48:17 60° SE 19:54:45 10° SW
IRIDIUM 103 4.3 19:44:41 10° S 19:49:54 77° E 19:55:08 10° N
GP-B 4.2 19:46:34 10° NNE 19:50:20 26° E 19:53:13 14° SE
Cosmos 1821 Rocket 4.0 19:46:02 10° S 19:52:04 65° E 19:58:14 10° NNE
COSMOS 2406 3.2 19:48:23 10° SSW 19:54:07 75° ESE 19:59:52 10° NNE
Shenzhou-11 Module 2.5 19:52:32 10° WSW 19:54:37 27° S 19:55:30 21° SSE
CZ-2C R/B 3.7 19:51:45 10° NNE 19:56:25 89° WNW 20:00:57 10° SSW
SL-16 R/B 4.1 19:54:00 10° N 19:57:44 18° NE 20:01:28 10° E
Intercosmos 25 3.2 19:53:40 10° N 19:58:18 80° E 20:01:26 12° SSE
ERS-1 Rocket 4.1 19:56:08 14° ESE 19:59:35 28° ENE 20:03:49 10° N
Lacrosse 5 3.4 19:56:15 10° NW 20:00:43 30° NNE 20:05:12 10° ENE
Cosmos 1862 3.6 19:59:24 10° SSW 20:03:25 71° W 20:07:30 10° N
Cosmos 2369 3.8 19:57:43 10° NNW 20:03:29 70° ENE 20:08:05 16° SE
Sich 1 3.0 19:59:55 10° S 20:04:19 74° E 20:08:46 10° NNE
Cosmos 1818 3.6 20:02:39 10° NW 20:08:08 84° SW 20:12:24 17° SSE
BREEZE-M DEB (TANK) 2.5 20:05:14 10° W 20:08:20 50° N 20:09:54 14° ENE
Cosmos 2082 Rocket 2.6 20:03:59 10° S 20:09:18 42° ESE 20:14:38 10° NE
Cosmos 2278 4.0 20:07:05 10° NNW 20:12:44 57° ENE 20:16:44 19° SE
Cosmos 2123 Rocket 4.1 20:06:53 10° N 20:13:03 61° ENE 20:18:06 16° SSE
Meteor 2-20 4.5 20:08:40 10° N 20:14:51 72° E 20:20:07 14° SSE
Spot 2 Rocket 3.6 20:11:25 16° SSE 20:15:24 65° ENE 20:20:28 10° N
Cosmos 2322 Rocket 4.0 20:16:11 10° N 20:20:21 20° NE 20:24:25 10° E
Meteor 1-4 Rocket 2.5 20:17:16 10° N 20:20:44 62° ENE 20:22:26 27° SSE
Cosmos 2239 Rocket 4.5 20:15:16 10° S 20:21:24 90° WSW 20:27:35 10° N
Cosmos 1184 Rocket 3.5 20:21:01 29° SE 20:21:55 35° E 20:24:58 10° NNE
Cosmos 1190 Rocket 4.0 20:16:51 10° S 20:22:04 68° ESE 20:27:21 10° NNE
CARTOSAT-1 4.3 20:20:05 22° ESE 20:22:16 38° ENE 20:26:17 10° N
Terra 3.0 20:21:08 19° ESE 20:23:29 28° ENE 20:27:32 10° N
CZ-2C R/B 4.2 20:19:15 10° N 20:23:57 36° WNW 20:28:40 10° SW
USA 234 3.3 20:18:45 17° ESE 20:23:57 80° NNE 20:30:31 10° NW
Cosmos 407 Rocket 3.5 20:19:40 10° SSW 20:25:00 86° ESE 20:30:20 10° NNE
Cosmos 1605 Rocket 4.3 20:21:08 17° SSE 20:25:34 46° E 20:31:20 10° NNE
Cosmos 1666 Rocket 3.4 20:21:37 10° S 20:25:55 83° E 20:30:16 10° N
Cosmos 1238 Rocket 3.4 20:28:02 25° E 20:28:02 25° E 20:30:24 10° NE
MetOp-B 4.3 20:25:44 14° S 20:30:24 74° WSW 20:35:47 10° NNW
Meteor 1-27 Rocket 4.1 20:25:36 10° NNW 20:31:29 71° W 20:36:53 13° S
Cosmos 2360 Rocket 4.3 20:30:53 10° N 20:34:17 16° NE 20:37:41 10° ENE
Cosmos 1437 Rocket 4.3 20:31:45 10° NNE 20:34:41 21° ENE 20:35:27 19° E
BREEZE-M DEB (TANK) 4.1 20:35:21 10° W 20:37:28 13° WSW 20:39:00 10° SSW
SPOT 5 3.0 20:35:54 28° SE 20:37:44 46° ENE 20:41:54 10° N
USA 238 DEB 3.9 20:31:45 10° S 20:37:56 44° ESE 20:44:21 10° NE
USA 238 3.9 20:31:53 10° S 20:38:03 43° ESE 20:44:27 10° NE
SPOT 1/Viking Rocket 3.5 20:39:53 23° SSE 20:43:16 89° WSW 20:48:33 10° NNW
Cosmos 1980 Rocket 2.2 20:38:14 10° NNW 20:43:57 85° ENE 20:47:05 28° SSE
Cosmos 1703 Rocket 4.5 20:42:01 10° N 20:45:58 33° ENE 20:47:06 28° ESE
Cosmos 2242 Rocket 4.0 20:41:47 10° N 20:46:04 44° ENE 20:47:28 33° ESE
SL-4 R/B 1.6 20:44:14 10° WSW 20:48:09 76° SSE 20:51:35 11° ENE
Cosmos 1763 Rocket 4.4 20:43:51 10° N 20:48:49 38° ENE 20:51:08 26° ESE
BREEZE-M DEB (TANK) 3.0 20:46:21 10° W 20:49:13 67° N 20:57:12 10° E
Genesis I 3.1 20:45:39 10° NW 20:49:33 83° NE 20:50:44 43° SE
Cosmos 405 Rocket 3.0 20:49:21 40° ESE 20:49:41 41° E 20:53:11 10° NNE
Cosmos 1140 Rocket 3.7 20:45:27 10° SSW 20:50:42 75° WNW 20:55:59 10° NNE
ATLAS 5 CENTAUR R/B 3.8 20:47:25 10° WNW 20:52:28 29° WSW 20:57:17 13° S
USA 32 4.0 20:53:02 21° S 20:56:38 89° ENE 21:01:53 10° N
Cosmos 1633 Rocket 3.7 20:55:05 11° SSW 20:59:16 54° WNW 21:03:38 10° N
Cosmos 1697 Rocket 3.6 20:54:14 10° NW 20:59:29 41° WSW 21:03:04 19° SSW
Cosmos 1833 Rocket 3.5 20:54:33 10° SW 21:00:01 52° WNW 21:05:32 10° NNE
Cosmos 1867 3.5 21:00:58 10° SSW 21:06:24 86° SE 21:11:54 10° NE
CENTAUR R/B 2.9 21:04:46 33° SSE 21:06:30 39° ESE 21:12:46 10° NE
Meteor 1-18 Rocket 4.2 21:01:56 10° N 21:07:34 73° ENE 21:09:50 37° SSE
Okean 1-7 3.4 21:03:31 10° N 21:07:44 48° ENE 21:08:30 43° ESE
Resurs 01 Rocket 4.0 21:06:27 10° SW 21:09:30 18° W 21:12:35 10° NW
FALCON 9 DEB 3.1 21:10:20 10° WSW 21:13:50 85° NNW 21:15:22 31° ENE
Cosmos 1447 Rocket 4.5 21:08:19 10° N 21:14:43 86° E 21:17:47 33° S
Cosmos 1850 Rocket 4.3 21:14:19 41° SE 21:15:23 47° ESE 21:20:27 10° NNE
Meteor 2-4 Rocket 4.1 21:11:40 10° N 21:17:13 50° ENE 21:18:53 38° ESE
Cosmos 1515 3.6 21:14:20 10° N 21:18:10 64° E 21:18:22 62° E
Cosmos 676 Rocket 4.3 21:14:19 10° SSW 21:19:36 68° WNW 21:24:57 10° NNE
Cosmos 44 4.5 21:16:40 10° NNW 21:21:08 35° NE 21:23:08 25° E
ATLAS 5 CENTAUR R/B 3.2 21:19:01 10° NNW 21:21:31 32° NE 21:23:25 23° E
Meteor 1-25 Rocket 4.3 21:17:53 21° SSW 21:21:43 73° WNW 21:27:21 10° N
Cosmos 1470 Rocket 4.1 21:19:31 24° SSW 21:21:59 56° WNW 21:26:19 10° N
SWARM A 4.4 21:20:00 10° N 21:22:57 63° NE 21:22:57 63° NE
USA 267 3.9 21:24:55 10° NE 21:31:18 57° NNW 21:37:40 10° W
NOSS 3-2 (A) 3.3 21:26:44 10° SW 21:32:27 89° WNW 21:39:04 10° NE
Cosmos 921 Rocket 3.5 21:30:02 10° NNW 21:34:07 48° WSW 21:34:50 43° SW
ERS-1 Rocket 3.8 21:36:08 29° SSW 21:38:10 42° W 21:42:58 10° NNW
NOSS 3-2 (C) 3.3 21:35:51 35° SSW 21:38:21 67° SE 21:44:48 10° NE
Cosmos 841 Rocket 3.8 21:35:47 10° NNW 21:40:54 53° ENE 21:42:00 45° ESE
Cosmos 540 Rocket 3.8 21:37:16 10° NNW 21:42:21 53° ENE 21:43:22 45° ESE
SL-16 R/B 2.2 21:37:08 10° NNW 21:42:50 77° ENE 21:44:17 51° SE
Lacrosse 5 1.9 21:39:16 10° NW 21:44:22 74° NE 21:45:31 52° ESE
Cosmos 468 Rocket 4.1 21:39:14 10° NNW 21:44:32 71° WSW 21:45:45 52° S
Cosmos 1741 Rocket 3.9 21:48:23 51° SSW 21:49:45 86° ESE 21:55:04 10° NNE
Cosmos 1570 Rocket 4.1 21:46:55 10° NNW 21:52:14 68° ENE 21:53:10 56° ESE
Cosmos 2082 Rocket 3.7 21:48:15 10° WSW 21:53:28 36° NW 21:58:42 10° NNE
Cosmos 2219 Rocket 4.1 21:49:17 10° N 21:53:36 21° NE 21:56:38 15° E
Cosmos 2208 Rocket 4.2 21:49:05 10° NNW 21:54:20 59° ENE 21:55:11 52° ESE
Cosmos 1814 Rocket 4.2 21:49:33 10° NNW 21:54:42 57° ENE 21:55:32 50° E
Terra 2.8 22:00:02 34° SW 22:01:05 38° W 22:05:33 10° NNW
Cosmos 2322 Rocket 2.1 21:59:28 10° NNW 22:05:12 89° WSW 22:06:13 63° SSE
USA 234 4.0 22:06:06 33° SSW 22:07:21 36° SW 22:13:17 10° WNW
Cosmos 2100 Rocket 4.0 22:05:36 44° SSW 22:07:41 77° W 22:13:51 10° N
Meteor 1-11 Rocket 3.7 22:09:09 59° SE 22:09:43 62° E 22:15:22 10° NNE
Cosmos 1437 Rocket 4.1 22:07:36 10° NNW 22:10:50 31° W 22:10:50 31° W
Cosmos 1242 Rocket 4.1 22:09:47 10° N 22:12:07 29° NE 22:12:07 29° NE
Cosmos 1869 Rocket 3.9 22:13:01 56° W 22:13:22 58° WNW 22:17:46 10° N
Cosmos 2360 Rocket 2.2 22:13:45 10° NNW 22:19:26 68° ENE 22:20:19 58° ESE
COSMOS 2428 4.2 22:15:18 10° N 22:20:13 28° NE 22:22:37 21° E
Geosat 3.9 22:20:48 68° SW 22:21:04 70° WSW 22:26:08 10° NNW
ATLAS 3B R/B 2.7 22:21:12 51° SE 22:21:24 51° ESE 22:27:48 10° NE
Iridium 4 Rocket 3.6 22:21:45 51° W 22:21:53 51° W 22:26:02 10° N
Cosmos 2173 Rocket 4.2 22:21:11 41° SW 22:23:17 63° W 22:29:24 10° N
Cosmos 1500 4.3 22:25:10 38° WNW 22:25:10 38° WNW 22:28:21 10° N
CRYOSAT 2 4.2 22:21:45 10° N 22:26:40 88° W 22:26:46 86° SW
Cosmos 1980 Rocket 4.2 22:23:53 10° WNW 22:27:09 16° W 22:28:51 14° WSW
ALOS 2 3.1 22:27:44 50° NE 22:27:44 50° NE 22:31:41 10° N
SL-4 R/B 3.1 22:24:21 10° W 22:27:13 36° NW 22:27:13 36° NW
Cosmos 1725 Rocket 3.9 22:27:19 61° S 22:28:32 83° E 22:34:54 10° N
USA 238 DEB 4.5 22:22:21 10° WSW 22:28:49 50° NW 22:35:36 10° NE
USA 238 4.4 22:22:27 10° WSW 22:28:55 51° NW 22:35:42 10° NE
SL-08 R/B 4.3 22:32:19 63° S 22:33:23 89° W 22:39:31 10° N
Cosmos 1536 3.6 22:34:39 50° N 22:34:39 50° N 22:37:40 10° N
Cosmos 1674 Rocket 4.0 22:29:32 10° N 22:33:13 53° NE 22:33:13 53° NE
Cosmos 1666 3.8 22:37:32 43° NNW 22:37:32 43° NNW 22:40:12 10° N
Cosmos 1743 4.5 22:38:17 26° NE 22:38:17 26° NE 22:40:23 10° NNE
Cosmos 2333 Rocket 3.0 22:34:22 10° NNW 22:39:53 44° NE 22:41:19 37° E
Cosmos 2016 Rocket 4.2 22:39:51 49° SW 22:41:29 68° W 22:47:52 10° N
Cosmos 1271 Rocket 4.2 22:38:18 10° N 22:40:47 31° NE 22:40:47 31° NE
Meteor 1-13 Rocket 4.5 22:37:26 10° NNW 22:42:49 54° W 22:43:23 52° WSW
Cosmos 2061 Rocket 4.1 22:41:23 50° SW 22:42:54 67° W 22:49:06 10° N
Lacrosse 4 Rocket 3.2 22:45:23 23° ENE 22:45:23 23° ENE 22:47:14 10° NE
Cosmos 2237 Rocket 4.3 22:39:39 10° N 22:43:41 19° NE 22:47:32 11° E
MOS 1-B Rocket 4.2 22:39:39 10° N 22:45:15 59° WNW 22:46:44 44° WSW
Cosmos 2221 Rocket 4.3 22:42:34 10° NNW 22:46:29 45° WNW 22:46:29 45° WNW
Cosmos 1733 Rocket 3.4 22:50:59 62° NNW 22:50:59 62° NNW 22:54:49 10° N
Cosmos 1066 Rocket 4.1 22:47:40 10° NNW 22:53:24 77° W 22:53:46 73° SW
Meteor 1-23 Rocket 4.2 22:49:22 10° NNW 22:55:13 78° W 22:55:43 72° SSW
Thor Agena Rocket 3.7 22:51:30 10° N 22:56:30 61° WNW 22:57:00 57° W
CENTAUR R/B 3.3 22:51:50 15° WSW 22:56:57 52° NW 23:04:04 10° NE
Cosmos 968 Rocket 4.0 22:59:01 46° ENE 22:59:01 46° ENE 23:03:11 10° NNE
Cosmos 44 4.2 22:57:47 10° NW 23:01:33 39° W 23:01:33 39° W
Cosmos 2233 Rocket 4.1 23:14:31 59° SW 23:15:34 70° W 23:21:55 10° N
Cosmos 1464 Rocket 4.3 23:15:36 48° ESE 23:16:13 49° E 23:22:09 10° NNE
Cosmos 1908 Rocket 4.1 23:18:33 55° NNE 23:18:33 55° NNE 23:22:01 10° N
Cosmos 2227 Rocket 4.3 23:22:42 14° E 23:22:42 14° E 23:25:11 10° ENE
Helios 1B rocket 4.4 23:19:45 10° NE 23:21:48 20° ENE 23:21:48 20° ENE
Meteor 1-21 4.5 23:19:00 10° N 23:24:46 60° ENE 23:25:21 57° ESE
SL-16 R/B 4.0 23:22:35 10° WNW 23:26:08 18° W 23:26:08 18° W
Lacrosse 5 3.8 23:22:50 10° WNW 23:24:41 18° W 23:24:41 18° W
Cosmos 1833 4.5 23:28:44 54° W 23:29:36 60° WNW 23:35:13 10° NNE
Cosmos 2322 3.7 23:24:03 10° NNW 23:29:31 67° W 23:29:31 67° W
Nadezhda 4 Rocket 4.4 23:30:40 10° N 23:36:51 54° ENE 23:38:04 47° ESE
Cosmos 2219 Rocket 2.0 23:32:33 10° NNW 23:38:16 83° WSW 23:38:19 82° SW
Cosmos 1975 Rocket 3.5 23:38:41 10° N 23:42:25 60° N 23:42:25 60° N
Cosmos 1513 Rocket 4.4 23:42:38 69° SSE 23:43:26 80° E 23:49:53 10° N
Cosmos 2034 Rocket 4.2 23:43:53 54° ESE 23:44:40 58° E 23:50:50 10° NNE
Okean 2 Rocket 4.3 23:45:22 34° ENE 23:45:22 34° ENE 23:48:50 10° NNE
Cosmos 1503 Rocket 4.0 23:45:55 84° ENE 23:45:55 84° ENE 23:51:13 10° NNE
Cosmos 1072 Rocket 4.3 23:46:51 74° S 23:47:27 89° E 23:53:36 10° N
Cosmos 2322 Rocket 4.3 23:45:27 10° WNW 23:48:01 14° W 23:48:01 14° W
Helios 1A 4.0 23:49:48 40° NW 23:49:48 40° NW 23:52:47 10° NNW
SL-16 R/B 4.1 23:46:15 16° ESE 23:50:04 30° ENE 23:55:21 10° N
Cosmos 1486 Rocket 4.5 23:52:11 49° WNW 23:52:35 50° WNW 23:57:41 10° NNE
CZ-2D R/B 4.0 23:50:12 10° NE 23:53:57 18° E 23:54:54 18° ESE
SL-16 R/B 4.2 23:49:26 10° N 23:54:01 24° NE 23:58:34 10° E
Sich 1 Rocket 4.1 23:55:31 56° NE 23:55:31 56° NE 23:59:05 10° NNE
